Wind_Speed
10 12 13 14 15 16 16 15 18 21 24 27 29 29 29 28 27 27 29 29 30 31 34 35 36 36 37 39 42 44 46 50 52 55 57 59 59 59 58 58 56 55 55 56
12 13 14 15 15 16 16 16 19 20 23 23 22 23 24 24 24 25 25 27 30 32 33 35 34 35 39 41 44 48 51 54 56 58 61 63 64 64 63 61 57 57 57 52
13 14 14 14 14 16 16 19 21 23 22 22 24 22 21 21 21 21 22 25 27 29 28 29 33 37 41 44 47 51 54 56 59 62 64 65 67 65 63 60 56 56 48 48
12 13 13 13 14 16 18 20 21 21 22 23 20 23 20 20 19 18 19 22 23 26 28 31 36 40 43 47 51 53 55 58 60 62 65 66 65 66 64 62 56 48 49 50
14 14 14 14 16 16 16 19 20 22 22 21 21 22 21 21 20 18 20 22 25 28 30 34 37 40 45 49 51 54 57 60 62 64 65 67 68 67 62 55 50 51 53 54
14 14 14 15 16 17 18 19 17 18 20 21 22 24 22 21 22 23 24 25 27 29 31 34 39 43 46 50 52 56 58 60 61 64 67 66 61 52 49 50 53 54 54 53
13 13 15 16 17 18 19 19 18 19 19 22 24 25 23 22 22 22 23 24 25 27 32 36 40 44 47 50 52 55 57 60 64 65 62 53 49 52 52 52 52 51 49 50
13 12 16 16 18 19 19 19 18 19 19 22 24 25 24 24 24 23 23 24 27 30 34 37 40 44 47 50 54 56 60 63 64 56 48 51 53 53 50 47 45 43 44 46
15 15 17 19 20 19 18 16 17 20 21 23 24 23 23 25 24 24 24 26 28 31 34 38 41 44 48 52 55 58 61 64 55 47 51 53 50 48 44 42 42 41 44 42
15 17 18 19 18 18 18 16 17 21 25 26 23 22 24 24 25 26 27 28 29 32 35 39 43 46 51 54 57 60 63 56 49 50 53 48 47 42 42 40 43 47 47 45
16 17 19 20 18 18 17 17 18 21 23 26 26 22 24 25 27 28 29 30 31 33 37 41 43 48 51 54 57 61 57 48 49 51 47 46 41 40 40 42 46 49 48 45
18 20 21 21 18 19 18 18 19 21 21 24 27 24 27 28 28 29 29 30 32 34 37 41 44 48 51 55 58 56 48 48 48 47 45 40 37 38 40 42 47 48 47 44
21 22 23 22 20 19 19 20 21 22 23 25 29 30 29 27 27 27 27 28 31 34 37 41 45 48 52 55 56 48 47 46 46 45 41 35 36 38 42 42 44 47 44 41
24 23 23 23 21 20 22 23 22 25 26 27 29 31 29 28 27 27 28 29 31 34 38 42 44 47 53 55 48 44 44 46 45 42 36 35 36 38 38 41 43 43 40 36
26 25 24 24 24 21 21 24 25 27 29 30 29 30 27 26 27 27 28 29 31 35 38 42 43 48 52 52 42 41 45 45 43 38 35 36 36 42 43 41 41 41 38 32
28 27 26 24 26 23 23 24 25 27 29 30 30 28 27 25 26 28 30 31 32 36 39 40 43 48 52 48 38 40 43 46 42 37 37 34 38 39 39 38 40 36 35 29
29 29 30 25 26 25 24 26 26 28 30 31 27 28 25 25 27 29 31 32 33 36 39 38 43 48 51 46 37 39 41 44 42 39 37 34 38 39 40 44 40 37 33 25
29 30 32 28 27 27 27 28 27 27 30 29 27 28 26 26 28 31 33 33 34 36 36 39 43 47 50 44 37 38 40 42 44 42 39 38 40 41 39 42 37 40 36 32
30 33 36 32 30 29 26 28 28 26 28 29 27 27 27 27 28 32 33 33 33 36 34 38 42 46 50 45 38 37 39 40 42 44 43 42 42 41 47 35 36 39 37 32
29 32 35 34 33 32 26 28 28 28 27 27 28 28 27 29 28 31 31 32 32 34 33 38 42 46 49 47 39 37 38 39 43 43 44 43 45 48 41 34 37 41 41 32
33 31 33 33 35 33 26 30 30 29 28 28 29 30 28 29 30 31 32 31 32 32 31 36 42 47 49 48 41 37 37 38 42 43 45 45 46 46 40 38 38 38 31 22
36 35 33 34 34 33 29 31 31 31 29 30 30 30 29 29 29 31 31 29 31 29 30 35 42 46 49 51 43 38 36 37 41 43 44 45 48 42 37 34 31 31 21 20
37 35 36 36 33 32 32 32 31 30 29 31 30 29 28 29 28 30 29 28 29 26 29 34 39 45 48 49 47 37 36 36 38 43 43 43 44 40 40 31 31 26 23 21
39 37 39 38 31 33 33 32 31 29 27 28 30 28 27 28 27 29 27 26 27 24 27 32 37 42 49 52 50 41 33 33 37 41 40 41 40 41 36 32 31 27 24 20
42 40 38 37 32 34 32 33 33 30 30 29 30 28 28 26 26 28 26 25 25 22 26 30 35 41 48 54 53 44 31 31 36 38 38 39 38 38 37 35 31 26 25 22
46 44 40 38 32 35 34 34 32 30 29 29 30 28 28 25 25 26 24 23 22 21 25 29 34 40 45 52 54 46 30 29 33 34 35 35 35 35 38 36 31 29 27 23
Wind_Direction
281 281 287 289 294 296 298 301 306 303 298 294 299 304 305 305 304 300 298 299 299 300 304 311 315 312 307 306 308 309 305 306 309 310 308 308 309 307 304 304 304 301 297 294
279 282 285 290 294 293 295 301 295 290 291 295 304 308 308 307 305 300 298 297 297 302 307 311 309 307 308 308 308 309 310 311 310 309 310 310 308 309 308 306 304 300 299 296
276 284 291 295 292 292 295 296 298 304 308 312 316 316 312 308 310 305 302 298 300 302 304 305 305 307 307 308 309 310 311 310 311 312 311 310 310 307 304 303 303 304 299 297
281 284 289 290 292 298 299 300 305 311 313 318 320 316 316 313 307 304 298 295 300 305 305 306 303 304 306 307 309 310 312 314 313 312 310 309 308 307 308 307 308 304 303 301
279 287 290 293 298 304 305 306 310 312 315 316 317 314 316 314 310 305 302 303 304 302 300 301 304 306 308 308 312 314 316 316 315 312 310 311 312 311 312 311 309 308 305 304
282 282 287 294 302 310 312 312 310 308 312 318 321 319 320 315 310 308 304 301 300 300 303 305 306 308 311 313 316 319 316 313 311 314 316 316 315 316 314 312 310 309 306 303
276 283 286 293 301 308 311 311 314 314 321 325 327 323 320 318 313 306 300 297 300 306 306 307 312 312 313 318 318 315 313 317 318 318 316 316 316 315 315 312 311 310 307 302
279 280 286 294 299 303 305 307 313 318 324 330 332 325 321 319 316 312 312 309 305 304 310 312 312 316 319 319 317 319 320 318 318 317 317 317 317 316 314 313 313 313 312 309
259 269 281 290 295 301 304 308 313 315 320 328 335 330 317 320 317 313 308 305 307 311 312 314 316 321 322 322 322 322 320 318 318 317 319 320 318 316 317 316 314 316 315 309
257 270 283 291 298 302 305 311 315 319 325 328 332 331 320 317 317 315 311 309 313 315 317 319 325 325 323 323 324 321 320 322 321 320 319 319 319 319 321 323 319 317 315 309
277 279 286 294 298 301 306 310 313 318 324 327 329 335 325 325 323 319 317 317 317 318 322 326 326 325 324 325 323 322 324 324 322 323 323 321 320 322 322 324 322 319 318 313
287 289 292 295 299 303 302 304 305 313 321 326 328 335 323 321 322 321 318 320 321 322 324 326 326 325 327 326 325 327 327 327 326 324 324 323 323 324 326 326 327 325 324 321
290 288 289 294 300 304 303 302 305 310 314 321 326 326 324 325 326 327 324 322 323 324 327 327 327 329 327 328 330 330 330 328 328 328 328 326 325 326 324 325 331 327 326 330
288 288 287 293 297 299 300 298 304 307 311 318 322 329 324 330 330 325 324 326 326 328 329 328 329 330 329 333 332 333 333 333 332 332 331 328 328 330 333 334 333 330 330 335
282 282 283 286 290 292 293 296 303 306 309 317 321 326 329 329 327 326 325 326 328 329 328 330 332 330 334 334 334 338 338 339 337 336 332 329 331 329 331 332 332 335 335 339
275 276 277 281 287 292 292 292 297 299 303 309 315 324 329 327 324 321 327 329 330 329 330 332 334 334 335 336 337 340 343 344 341 337 336 339 341 337 338 340 343 333 335 337
273 275 275 277 281 286 288 290 292 296 299 303 310 321 327 326 327 329 330 330 330 330 332 333 336 335 335 339 338 340 343 345 345 340 337 335 333 337 337 335 336 341 333 333
272 271 272 273 276 278 284 287 289 295 296 300 308 315 322 323 325 329 330 329 328 329 332 337 339 337 340 341 337 337 344 344 349 345 338 334 333 335 335 336 331 332 335 332
273 272 273 273 272 276 279 281 290 293 296 299 303 310 320 325 330 330 329 325 326 330 335 341 341 341 343 343 337 335 342 346 347 348 344 341 337 337 334 338 331 324 325 325
265 268 273 278 278 277 275 278 283 287 290 294 299 302 310 315 325 329 325 324 326 332 338 342 341 344 345 345 338 336 341 344 346 347 346 344 340 338 348 337 332 324 320 316
273 272 274 276 276 277 282 280 282 287 290 294 297 301 303 309 319 328 328 327 328 333 338 344 347 348 348 347 340 338 341 343 346 345 347 346 342 349 346 343 334 334 338 335
276 276 277 276 277 281 278 280 282 284 290 292 296 299 302 306 316 326 328 328 327 332 338 344 348 350 349 350 346 337 339 343 345 346 348 348 346 353 347 346 354 357 3 31
274 273 276 276 278 282 283 281 281 284 285 287 292 297 302 305 314 325 327 326 326 329 337 344 350 355 353 351 349 340 337 342 345 348 350 351 354 356 354 2 10 10 10 46
270 272 271 276 281 279 278 277 279 281 282 284 288 294 297 302 312 322 324 324 322 325 335 343 350 355 353 355 351 345 339 345 348 349 352 354 2 4 6 13 14 11 16 20
268 270 271 273 278 278 276 278 280 281 280 282 284 292 292 300 308 318 320 319 317 320 332 341 346 349 349 352 353 348 340 346 349 351 354 357 7 9 15 19 23 24 27 39
270 269 270 270 272 270 271 273 277 277 276 277 282 286 289 297 306 315 316 314 313 315 330 339 344 347 348 349 352 351 342 344 350 353 356 359 10 13 18 21 28 36 40 52
Height
5912 5912 5911 5910 5909 5907 5906 5905 5904 5901 5900 5899 5896 5894 5893 5891 5890 5889 5887 5885 5882 5880 5878 5876 5873 5869 5865 5860 5855 5851 5846 5840 5834 5828 5823 5817 5811 5804 5797 5790 5785 5778 5773 5768
5910 5908 5908 5907 5906 5905 5903 5902 5901 5900 5898 5896 5894 5891 5889 5886 5884 5882 5881 5879 5877 5875 5872 5870 5865 5861 5856 5851 5846 5841 5835 5829 5823 5817 5810 5802 5793 5785 5779 5772 5767 5761 5755 5750
5906 5906 5905 5904 5903 5902 5900 5899 5897 5895 5892 5890 5888 5886 5883 5881 5879 5877 5875 5873 5871 5869 5867 5863 5859 5854 5849 5843 5837 5831 5826 5819 5812 5804 5795 5786 5777 5771 5764 5759 5752 5744 5738 5733
5903 5903 5902 5901 5900 5899 5897 5895 5893 5890 5889 5887 5885 5882 5879 5877 5874 5872 5870 5868 5866 5863 5860 5856 5852 5847 5841 5835 5829 5823 5815 5808 5799 5790 5780 5772 5763 5754 5745 5738 5733 5728 5722 5717
5900 5899 5899 5898 5897 5895 5894 5891 5889 5887 5884 5883 5880 5878 5875 5871 5869 5867 5865 5862 5859 5856 5853 5849 5845 5839 5833 5827 5820 5812 5803 5793 5783 5775 5766 5756 5746 5736 5728 5722 5717 5713 5707 5700
5897 5896 5896 5894 5893 5891 5889 5887 5886 5884 5881 5879 5876 5873 5870 5867 5864 5861 5858 5856 5853 5851 5847 5842 5838 5832 5825 5817 5809 5799 5790 5782 5773 5762 5751 5741 5733 5725 5718 5712 5705 5698 5691 5685
5894 5893 5891 5891 5890 5888 5885 5884 5883 5881 5878 5875 5871 5868 5864 5861 5859 5856 5854 5851 5848 5844 5840 5836 5830 5823 5816 5808 5799 5791 5781 5770 5760 5750 5741 5731 5723 5715 5708 5700 5693 5685 5678 5671
5890 5890 5888 5888 5887 5886 5883 5881 5879 5876 5875 5872 5867 5863 5860 5856 5853 5849 5846 5844 5841 5837 5833 5828 5822 5815 5808 5800 5790 5780 5769 5759 5749 5739 5730 5721 5712 5703 5696 5688 5680 5672 5665 5657
5888 5887 5885 5885 5883 5882 5880 5878 5876 5873 5871 5868 5865 5861 5857 5852 5848 5845 5842 5838 5835 5831 5826 5820 5814 5808 5799 5789 5779 5769 5758 5748 5737 5729 5720 5710 5701 5692 5684 5676 5669 5662 5654 5645
5885 5884 5882 5880 5879 5877 5876 5875 5872 5869 5865 5863 5861 5858 5852 5848 5844 5840 5836 5832 5828 5824 5819 5813 5806 5797 5789 5779 5769 5758 5747 5735 5726 5718 5709 5700 5691 5683 5675 5668 5660 5652 5642 5634
5881 5881 5880 5877 5875 5873 5872 5870 5868 5866 5863 5859 5856 5854 5848 5844 5839 5834 5830 5826 5822 5817 5811 5805 5798 5790 5780 5771 5760 5749 5737 5727 5717 5708 5698 5690 5682 5675 5667 5659 5651 5641 5632 5622
5875 5874 5873 5872 5871 5869 5867 5866 5864 5862 5861 5856 5852 5851 5843 5839 5834 5830 5825 5820 5816 5811 5806 5799 5791 5782 5773 5762 5751 5738 5728 5719 5709 5700 5691 5683 5675 5667 5659 5650 5642 5631 5621 5611
5869 5868 5867 5867 5867 5864 5862 5861 5859 5857 5855 5853 5848 5844 5837 5833 5829 5824 5820 5815 5811 5806 5800 5793 5784 5775 5765 5754 5742 5730 5721 5711 5702 5692 5683 5676 5667 5660 5651 5642 5633 5623 5612 5602
5864 5863 5863 5863 5862 5860 5857 5855 5854 5852 5849 5848 5843 5838 5832 5827 5823 5819 5814 5810 5806 5800 5793 5786 5778 5769 5758 5746 5734 5725 5715 5705 5695 5685 5677 5669 5661 5653 5644 5635 5626 5615 5606 5596
5858 5858 5857 5857 5856 5856 5853 5851 5848 5846 5843 5840 5838 5833 5828 5823 5819 5814 5809 5805 5800 5794 5787 5780 5772 5762 5751 5741 5730 5720 5710 5699 5688 5679 5671 5664 5655 5647 5638 5628 5619 5610 5601 5592
5852 5852 5852 5852 5850 5850 5848 5846 5845 5842 5838 5836 5832 5828 5824 5819 5815 5810 5805 5800 5794 5788 5782 5774 5766 5755 5746 5734 5725 5716 5705 5695 5684 5675 5667 5658 5650 5641 5632 5623 5613 5604 5597 5589
5847 5846 5845 5847 5844 5843 5844 5841 5839 5837 5833 5830 5827 5823 5819 5815 5810 5805 5800 5794 5788 5782 5776 5769 5760 5750 5740 5728 5719 5711 5702 5691 5680 5672 5664 5654 5645 5637 5627 5618 5608 5600 5592 5585
5838 5837 5837 5838 5838 5838 5836 5833 5832 5831 5826 5823 5820 5817 5814 5810 5805 5800 5794 5789 5783 5777 5771 5763 5754 5745 5733 5722 5713 5706 5697 5687 5677 5668 5659 5650 5641 5631 5621 5611 5603 5595 5587 5581
5830 5829 5827 5829 5830 5830 5830 5827 5826 5824 5821 5816 5815 5812 5809 5805 5801 5796 5791 5785 5779 5773 5765 5758 5750 5740 5728 5717 5709 5701 5693 5683 5674 5665 5655 5645 5635 5625 5614 5605 5597 5589 5581 5573
5824 5822 5822 5822 5821 5822 5824 5821 5818 5817 5816 5812 5809 5806 5804 5800 5798 5793 5787 5781 5775 5768 5761 5754 5746 5735 5724 5713 5705 5697 5689 5680 5671 5661 5651 5641 5631 5619 5608 5598 5590 5581 5572 5565
5815 5815 5814 5814 5812 5814 5817 5813 5811 5811 5812 5806 5803 5800 5798 5795 5792 5787 5781 5775 5769 5763 5757 5750 5742 5732 5720 5710 5701 5693 5685 5677 5668 5658 5648 5638 5626 5614 5603 5593 5583 5574 5565 5558
5806 5806 5806 5805 5804 5806 5807 5805 5805 5803 5801 5798 5796 5794 5791 5789 5786 5781 5776 5770 5764 5759 5753 5747 5739 5729 5718 5708 5698 5689 5682 5675 5666 5656 5646 5636 5623 5611 5599 5590 5581 5572 5564 5560
5798 5798 5796 5797 5798 5797 5796 5796 5796 5795 5794 5791 5789 5787 5785 5783 5780 5776 5770 5765 5760 5755 5750 5744 5736 5726 5716 5706 5696 5687 5680 5674 5665 5655 5645 5635 5622 5611 5600 5591 5583 5575 5568 5563
5786 5787 5786 5786 5791 5788 5787 5788 5788 5787 5786 5784 5781 5780 5778 5776 5774 5770 5765 5760 5756 5751 5746 5741 5732 5724 5715 5705 5694 5685 5678 5672 5663 5655 5645 5636 5625 5614 5603 5595 5586 5578 5572 5566
5775 5776 5777 5777 5779 5777 5778 5778 5778 5779 5777 5776 5774 5773 5771 5770 5768 5765 5760 5756 5751 5747 5743 5737 5730 5722 5713 5703 5692 5683 5677 5671 5663 5655 5647 5638 5628 5618 5608 5600 5592 5584 5577 5570
5763 5765 5765 5766 5770 5767 5768 5768 5769 5769 5768 5768 5766 5765 5764 5763 5762 5758 5755 5751 5747 5743 5739 5734 5727 5720 5712 5702 5691 5682 5675 5670 5664 5656 5649 5641 5632 5623 5614 5606 5599 5590 5583 5578